Flag for U.S.A. Weather past 2 weeks in Huntington Beach, California, U.S.A.

Now
66 °F

Scattered clouds.


Feels Like: 66 °F
Forecast: 55 / 68 °F
Wind: 6 mph from Southwest

Location: John Wayne Airport-Orange County Airport


UV Index: 5 (Moderate)

Visibility: 10 mi


Pressure: 29.85 "Hg

Humidity: 59%

Dew point: 51 °F

Location of Huntington BeachLocation

Historic Weather in Huntington Beach

°F

Huntington Beach temperature yesterday

Maximum temperature yesterday: 71 °F (at 3:53 PM)
Minimum temperature yesterday: 58 °F (at 6:53 AM)
Average temperature yesterday: 62 °F

Past Weeks' High & Low Weather Summary

 TemperatureHumidityPressure
High88 °F (Apr 8, 1:53 PM)94% (Apr 10, 3:03 AM)30.14 "Hg (Apr 10, 3:03 AM)
Low50 °F (Apr 3, 5:53 AM)16% (Apr 8, 3:53 PM)29.83 "Hg (Apr 15, 5:53 PM)
Average64 °F59%29.99 "Hg
* Reported Apr 1 10:53 AM — Apr 16 10:53 AM, Huntington Beach, Weather by CustomWeather, © 2014

Note: Actual official high and low records may vary slightly from our data, if they occured in-between our weather recording intervals... More about our weather records

Advertising

Historic Weather Conditions — Data for Previous 24 hours

 ConditionsComfort  
Time TempWeatherWind HumidityBarometerVisibility
10:53 AM
Apr 16
65 °FScattered clouds.6 mph61%29.86 "Hg10 mi
9:53 AM62 °FScattered clouds.No wind65%29.86 "Hg10 mi
8:53 AM60 °FOvercast.No wind69%29.87 "Hg10 mi
7:53 AM60 °FOvercast.5 mph72%29.86 "Hg10 mi
6:53 AM60 °FOvercast.3 mph72%29.85 "Hg10 mi
5:53 AM60 °FOvercast.6 mph72%29.85 "Hg10 mi
4:53 AM60 °FOvercast.5 mph72%29.85 "Hg10 mi
3:53 AM59 °FOvercast.3 mph75%29.85 "Hg10 mi
2:53 AM59 °FPassing clouds.3 mph78%29.86 "Hg10 mi
1:53 AM59 °FOvercast.5 mph78%29.88 "Hg10 mi
12:53 AM59 °FOvercast.No wind78%29.88 "Hg10 mi
11:53 PM
Apr 15
58 °FPassing clouds.3 mph84%29.88 "Hg10 mi
10:53 PM58 °FFog.7 mph81%29.88 "Hg6 mi
9:53 PM58 °FFog.5 mph84%29.89 "Hg6 mi
8:53 PM59 °FFog.7 mph81%29.88 "Hg6 mi
7:53 PM60 °FScattered clouds.8 mph80%29.85 "Hg9 mi
6:53 PM63 °FScattered clouds.9 mph73%29.84 "Hg10 mi
5:53 PM67 °FPassing clouds.9 mph61%29.83 "Hg10 mi
4:53 PM71 °FPassing clouds.8 mph49%29.84 "Hg10 mi
3:53 PM71 °FScattered clouds.6 mph49%29.85 "Hg10 mi
2:53 PM69 °FScattered clouds.7 mph55%29.89 "Hg10 mi
1:53 PM68 °FScattered clouds.9 mph57%29.92 "Hg10 mi
12:53 PM68 °FScattered clouds.8 mph57%29.93 "Hg9 mi
Weather by CustomWeather, © 2014

See weather overview